Regional Weather Roundup
Issued by NWS

Home | Current Version | Previous Version | Text Only | Print | Product List | Glossary On
Versions: 1 2 3 4 5 6 7 8 9 10 11 12 13 14 15 16 17 18 19 20 21 22 23 24 25 26 27 28 29 30 31 32 33 34 35 36 37 38 39 40 41 42 43 44 45 46 47 48 49 50
000
ASUS43 KTOP 222308
RWRKS

WEATHER ROUNDUP FOR KANSAS
NATIONAL WEATHER SERVICE GOODLAND KS
600 PM CDT TUE APR 22 2014

NOTE:  "FAIR" INDICATES FEW OR NO CLOUDS BELOW 12,000 FEET WITH NO
SIGNIFICANT WEATHER AND/OR OBSTRUCTIONS TO VISIBILITY.

KSZ001>006-013>018-027>032-041>047-230000-
NORTHWEST KANSAS

CITY           SKY/WX    TMP DP  RH WIND       PRES   REMARKS
GOODLAND       PTSUNNY   81  45  28 S33G45    29.75F
HAYS           SUNNY    N/A N/A N/A S24G32    29.89F
HILL CITY      SUNNY     77  37  23 S21G29    29.86F
RUSSELL        SUNNY     75  30  19 S25G31    29.90F
$$

KSZ061>065-074>080-084>089-230000-
SOUTHWEST KANSAS

CITY           SKY/WX    TMP DP  RH WIND       PRES   REMARKS
DODGE CITY     SUNNY     77  36  22 S28       29.90F
ELKHART          N/A     82  42  24 S17         N/A
GARDEN CITY    MOSUNNY   80  41  24 S28G37    29.84F
GREAT BEND     SUNNY     75  30  19 S20G29    29.91F
LIBERAL        SUNNY     82  43  24 S28       29.87F
PRATT          MOSUNNY   73  30  20 S15G23    29.95F
$$

KSZ066>073-081>083-090>101-230000-
SOUTHEAST KANSAS

CITY           SKY/WX    TMP DP  RH WIND       PRES   REMARKS
CHANUTE        SUNNY     71  34  25 E5        30.01F
COFFEYVILLE    SUNNY     73  32  22 E3        30.00F
HUTCHINSON     SUNNY     76  31  19 SE15      29.95F
MEDICINE LODGE   N/A     77  29  17 S10G21    29.93F
NEWTON         SUNNY     73  28  19 SE9       30.01F
PARSONS        SUNNY     73  31  21 VRB5      30.01F
WICHITA INTL   MOSUNNY   75  32  20 SE10      29.97F
WICHITA JABRA  SUNNY     74  32  21 SE8       29.97F
WICHITA MCCONL SUNNY     74  28  17 E12       29.98F
WINFIELD       SUNNY     75  30  19 E10       29.99F
$$

KSZ007>012-019>026-033>040-048>060-102>105-230000-
NORTHEAST KANSAS

CITY           SKY/WX    TMP DP  RH WIND       PRES   REMARKS
CONCORDIA      MOSUNNY   74  29  19 SE20      29.94F
EMPORIA        SUNNY     71  31  22 E8        30.00F
LAWRENCE       SUNNY     71  32  23 E6        30.01F
MANHATTAN      MOSUNNY   73  33  23 SE12      29.98F
OLATHE IND     SUNNY     70  29  21 CALM      30.02F
OLATHE EXE     SUNNY     67  29  24 S3        30.01F
SALINA         MOSUNNY   77  30  17 SE17      29.95F
TOPEKA BILLARD SUNNY     72  34  24 CALM      30.01F
TOPEKA FORBES  SUNNY     71  34  25 E7        30.01F
$$



USA.gov is the U.S. government's official web portal to all federal, state and local government web resources and services.